Regional Weather Roundup
Issued by NWS

Home | Current Version | Previous Version | Graphics & Text | Print | Product List | Glossary On
Versions: 1 2 3 4 5 6 7 8 9 10 11 12 13 14 15 16 17 18 19 20 21 22 23 24 25 26 27 28 29 30 31 32 33 34 35 36 37 38 39 40 41 42 43 44 45 46 47 48 49 50
194
ASUS43 KBIS 230710
RWRND

NORTH DAKOTA REGIONAL WEATHER ROUNDUP
NATIONAL WEATHER SERVICE BISMARCK ND
200 AM CDT SUN JUL 23 2017

NOTE: "FAIR" INDICATES FEW OR NO CLOUDS BELOW 12,000 FEET WITH NO
SIGNIFICANT WEATHER AND/OR OBSTRUCTIONS TO VISIBILITY.


NDZ001>003-009>011-017-230800-
NORTHWEST NORTH DAKOTA

CITY           SKY/WX    TMP DP  RH WIND       PRES   REMARKS
WILLISTON      CLEAR     61  51  70 CALM      30.06R
MINOT          CLEAR     60  53  77 W7        30.03S
MINOT AFB      CLEAR     53  51  93 NW3       30.02S
$$

NDZ018>021-031>035-040>046-230800-
SOUTHWEST NORTH DAKOTA

CITY           SKY/WX    TMP DP  RH WIND       PRES   REMARKS
BISMARCK       CLEAR     65  55  70 NW3       30.04S
DICKINSON      CLEAR     60  50  69 E5        30.07R
GARRISON         N/A     54  52  93 NW3       30.04R
HETTINGER ARPT CLEAR     58  49  72 NE3       30.10R
$$

NDZ004>008-012>016-024-026-027-054-230800-
NORTHEAST NORTH DAKOTA

CITY           SKY/WX    TMP DP  RH WIND       PRES   REMARKS
GRAND FORKS    MOCLDY    62  61  96 NW7       29.91S
GRND FRKS AFB  PTCLDY    60  59  97 NW7       29.92S
DEVILS LAKE    CLEAR     60  58  92 N8        29.99S
$$

NDZ022-023-025-028>030-036>039-047>053-230800-
SOUTHEAST NORTH DAKOTA

CITY           SKY/WX    TMP DP  RH WIND       PRES   REMARKS
FARGO          CLEAR     63  59  87 NW8       29.91S
JAMESTOWN      CLEAR     60  56  86 NW8       29.97S
$$





USA.gov is the U.S. government's official web portal to all federal, state and local government web resources and services.